User: anonymous   Login
Location: Unspecified
(0.0000°N, 0.0000°E)
Time: 03:53:20
(UTC+00:00)
Language:

COSMOS 2452 - Orbit

View from above orbital plane
View from above orbital plane
View from above satellite
View from above satellite

Ground track
Ground track

The orbit data is extracted from the following two-line orbital elements,

1 35499U 09036B   19054.11246706  .00000023  00000-0  94952-4 0  9992
2 35499  82.4922 303.0135 0015076 204.2664 155.7714 12.42914794437060
Epoch (UTC): 23 February 2019 02:41:57
Eccentricity: 0.0015076
inclination: 82.4922°
perigee height: 1482 km
apogee height: 1506 km
right ascension of ascending node: 303.0135°
argument of perigee: 204.2664°
revolutions per day: 12.42914794
mean anomaly at epoch: 155.7714°
orbit number at epoch: 43706

The dashed part of the orbit path shows where the satellite is in the earth's shadow,  

DLR